OSCAR 7 (AO-7) 1 07530U 74089B 26118.98635498 -.00000024 00000+0 13999-3 0 9993 2 07530 101.9928 131.7163 0011979 223.7296 192.3544 12.53697322354355 PHASE 3B (AO-10) 1 14129U 83058B 26118.35311208 -.00000137 00000+0 00000+0 0 9992 2 14129 25.8946 227.8674 6028461 101.9264 327.7175 2.05873308294462 UOSAT 2 (UO-11) 1 14781U 84021B 26119.15449072 .00001317 00000+0 13998-3 0 9991 2 14781 97.8023 85.2928 0007472 358.7254 1.3943 14.90663845249821 LUSAT (LO-19) 1 20442U 90005G 26119.06457346 .00000142 00000+0 67486-4 0 9991 2 20442 98.8883 139.5093 0011417 356.0634 4.0458 14.34107352895350 EYESAT A (AO-27) 1 22825U 93061C 26119.19275403 .00000109 00000+0 58432-4 0 9993 2 22825 98.6902 186.6179 0007408 240.0084 120.0364 14.30928592699991 ITAMSAT (IO-26) 1 22826U 93061D 26119.18674439 .00000105 00000+0 56538-4 0 9996 2 22826 98.6849 186.5243 0008124 221.8058 138.2505 14.31354103700305 RADIO ROSTO (RS15) 1 23439U 94085A 26119.15960882 -.00000043 00000+0 -14239-4 0 9996 2 23439 64.8209 22.5074 0154554 12.8033 347.6749 11.27583811290371 JAS-2 (FO-29) 1 24278U 96046B 26119.14341421 .00000012 00000+0 49798-4 0 9990 2 24278 98.5298 334.7173 0349136 223.5903 133.7164 13.53271837466533 TECHSAT 1B (GO-32) 1 25397U 98043D 26118.89412411 .00000077 00000+0 53394-4 0 9999 2 25397 99.0062 110.4135 0001680 38.6113 321.5185 14.24418432444310 ISS (ZARYA) 1 25544U 98067A 26119.16770406 .00006851 00000+0 13230-3 0 9991 2 25544 51.6320 182.7324 0007096 3.0267 357.0763 15.49015163564153 PCSAT (NO-44) 1 26931U 01043C 26119.12751588 .00000154 00000+0 88316-4 0 9994 2 26931 67.0527 11.1618 0006481 264.0327 96.0037 14.31936536283426 SAUDISAT 1C (SO-50) 1 27607U 02058C 26118.79300162 .00001269 00000+0 16677-3 0 9990 2 27607 64.5516 281.7957 0075602 271.4499 87.7947 14.82935654257133 CUTE-1 (CO-55) 1 27844U 03031E 26119.00354889 .00000324 00000+0 15933-3 0 9990 2 27844 98.6754 128.1790 0008956 335.4129 24.6622 14.24304328184678 CUBESAT XI-IV (CO-57) 1 27848U 03031J 26118.96741483 .00000271 00000+0 13831-3 0 9994 2 27848 98.6786 127.8957 0009248 354.7046 5.4033 14.23593671184375 MOZHAETS 4 (RS22) 1 27939U 03042A 26119.19299608 .00000991 00000+0 16106-3 0 9997 2 27939 98.3468 302.1712 0012502 66.4358 57.1941 14.73377947208333 CUBESAT XI-V 1 28895U 05043F 26118.39179343 .00001607 00000+0 26109-3 0 9995 2 28895 98.2926 272.9883 0014109 9.0083 351.1375 14.72497418 94425 CUTE-1.7+APD II (CO-65) 1 32785U 08021C 26119.18569028 .00004415 00000+0 28345-3 0 9992 2 32785 97.8250 99.6119 0008688 183.6355 176.4811 15.08978512977809 SEEDS II (CO-66) 1 32791U 08021J 26119.21000458 .00016937 00000+0 56642-3 0 9993 2 32791 97.7522 114.8375 0005051 110.3194 249.8589 15.31054269979797 YUBILEINY (RS30) 1 32953U 08025A 26119.16778674 -.00000032 00000+0 -30500-3 0 9999 2 32953 82.5079 25.9281 0020598 59.1057 301.2044 12.43177515813601 KKS-1 (KISEKI) 1 33499U 09002H 26119.13901552 .00001504 00000+0 19189-3 0 9994 2 33499 98.1194 40.8093 0009363 89.1537 271.0748 14.82993457928921 SWISSCUBE 1 35932U 09051B 26119.18015527 .00001149 00000+0 23694-3 0 9996 2 35932 98.4066 26.2118 0007203 16.3983 343.7449 14.62383527881999 BEESAT-1 1 35933U 09051C 26119.16434491 .00000947 00000+0 20016-3 0 9990 2 35933 98.3995 25.9330 0005978 31.6899 328.4660 14.61637394882028 ITUPSAT1 1 35935U 09051E 26119.18095078 .00000875 00000+0 19095-3 0 9993 2 35935 98.4081 25.1932 0008337 38.5411 321.6382 14.60364054881580 XIWANG-1 (HOPE-1) 1 36122U 09072B 26119.14845377 .00000390 00000+0 11362-2 0 9996 2 36122 100.3985 73.7720 0007508 351.2464 8.8517 13.16439496786559 O/OREOS (USA 219) 1 37224U 10062C 26119.17080399 .00002117 00000+0 20642-3 0 9990 2 37224 71.9712 191.3499 0013967 167.8603 192.2906 14.93543399109324 JUGNU 1 37839U 11058B 26118.76698919 .00000478 00000+0 10965-3 0 9990 2 37839 19.9607 248.6716 0018445 250.9026 260.2548 14.13761682752026 SRMSAT 1 37841U 11058D 26119.01366418 .00000423 00000+0 86045-4 0 9991 2 37841 19.9736 357.1069 0011726 23.3750 4.0479 14.11563896750862 STRAND-1 1 39090U 13009E 26119.04180032 .00000316 00000+0 12070-3 0 9993 2 39090 98.3914 300.4883 0009078 25.7576 334.4061 14.37133417690009 ZACUBE-1 (TSHEPISOSAT) 1 39417U 13066B 26119.14277250 .00005450 00000+0 42559-3 0 9998 2 39417 97.8122 81.2158 0043850 57.4022 303.1423 15.00780129673375 GOMX-1 1 39430U 13066Q 26119.15476843 .00002155 00000+0 33047-3 0 9994 2 39430 97.6524 322.7063 0127626 234.7016 124.2201 14.69272540662718 CUBEBUG-2 (LO-74) 1 39440U 13066AA 26118.82164623 .00003228 00000+0 30334-3 0 9996 2 39440 97.8878 67.6169 0057540 189.4620 170.5521 14.93410725669621 FUNCUBE-1 (AO-73) 1 39444U 13066AE 26119.19078872 .00008906 00000+0 56136-3 0 9997 2 39444 97.8246 89.6477 0037205 13.5570 346.6649 15.08803446672272 UWE-3 1 39446U 13066AG 26118.81357383 .00004372 00000+0 37911-3 0 9997 2 39446 97.8659 74.5832 0050873 123.3202 237.2906 14.96609909670192 UNISAT-6 1 40012U 14033C 26119.18145161 .00003646 00000+0 39674-3 0 9994 2 40012 97.7813 272.7830 0044260 228.7035 131.0368 14.87952088638872 DUCHIFAT-1 1 40021U 14033M 26119.08216829 .00069021 00000+0 97271-3 0 9999 2 40021 98.0530 171.6961 0004534 223.8334 136.2560 15.56384900648097 QB50P1 1 40025U 14033R 26118.97117190 .00009468 00000+0 47567-3 0 9993 2 40025 98.0980 126.6938 0009853 43.9603 316.2411 15.17474703645565 LILACSAT-2 1 40908U 15049K 26119.16256888 .00017025 00000+0 30682-3 0 9999 2 40908 97.4722 154.1845 0008727 78.0831 282.1398 15.49816699588151 FOX-1A (AO-85) 1 40967U 15058D 26119.18196175 .00003742 00000+0 34028-3 0 9997 2 40967 64.7753 71.2391 0128603 75.7963 285.7395 14.90663969106267 CAS-2T & KS-1Q 1 41847U 16066G 26119.13200414 .00000646 00000+0 10117-3 0 9995 2 41847 98.3830 195.4216 0340930 278.4422 77.8269 14.44571113497711 RADFXSAT (FOX-1B) 1 43017U 17073E 26119.11147528 .00010049 00000+0 44347-3 0 9999 2 43017 97.4781 347.3504 0154034 137.5941 223.7315 15.11814540457971 DIWATA-2B 1 43678U 18084H 26119.15031641 .00002698 00000+0 22069-3 0 9995 2 43678 98.1069 313.2701 0013075 339.0544 21.0141 15.00206691408869 ES'HAIL 2 1 43700U 18090A 26119.18517148 .00000142 00000+0 00000+0 0 9991 2 43700 0.0129 255.9695 0001593 173.8104 239.8562 1.00276241 27187 FOX-1CLIFF (AO-95) 1 43770U 18099N 26119.16530301 .00010609 00000+0 41926-3 0 9996 2 43770 97.4423 179.6243 0009911 152.7853 207.3906 15.25633116405745 ITASAT 1 43786U 18099AE 26119.13367586 .00006220 00000+0 30487-3 0 9997 2 43786 97.4073 171.6374 0013575 157.3481 202.8355 15.18411748405463 JY1SAT (JO-97) 1 43803U 18099AX 26119.13539993 .00017149 00000+0 55509-3 0 9994 2 43803 97.4171 181.8507 0007311 90.7072 269.5007 15.32082252406117 UWE-4 1 43880U 18111E 26119.04317785 .00028730 00000+0 64812-3 0 9992 2 43880 97.5860 45.2895 0010142 130.0054 230.2085 15.43142579403192 TIANYAN 01 1 44881U 19093C 26119.17434002 .00001416 00000+0 16613-3 0 9998 2 44881 97.7549 192.5998 0012066 246.4107 113.5842 14.86440774344134 RS-44 & BREEZE-KM R/B 1 44909U 19096E 26119.14181808 .00000015 00000+0 24216-4 0 9995 2 44909 82.5260 12.2974 0216374 259.0332 98.6361 12.79747964296076 SALSAT 1 46495U 20068K 26118.94528477 .00008479 00000+0 30285-3 0 9996 2 46495 97.8854 119.0416 0011632 112.2968 247.9505 15.29058442307838 XW-3 (CAS-9) 1 50466U 21131B 26119.18265549 .00000523 00000+0 17547-3 0 9994 2 50466 98.4951 211.8450 0003054 234.9061 125.1842 14.41309181228059 GREENCUBE (IO-117) 1 53109U 22080E 26116.97992185 -.00000003 00000+0 00000+0 0 9998 2 53109 70.1458 316.0629 0008819 301.5581 58.4217 6.42583360 88775 UMKA 1 (RS40S) 1 57172U 23091G 26119.19794792 .00005522 00000+0 25728-3 0 9994 2 57172 97.5091 178.0951 0011246 292.6532 67.3513 15.20257857156569 CUBESX-HSE 3 (RS42S) 1 57178U 23091N 26119.20626962 .00011896 00000+0 41183-3 0 9999 2 57178 97.5127 184.2148 0009447 262.9439 97.0727 15.29980386156935 MONITOR-3 (RS58S) 1 57180U 23091Q 26119.19236926 .00009592 00000+0 36572-3 0 9993 2 57180 97.5121 182.3085 0010258 271.0973 88.9091 15.26856963156817 MONITOR-4 (RS57S) 1 57182U 23091S 26119.17448659 .00009679 00000+0 36795-3 0 9994 2 57182 97.5115 182.2584 0010198 271.6299 88.3771 15.26953517156817 MONITOR-2 (RS39S) 1 57184U 23091U 26119.15949677 .00004996 00000+0 24560-3 0 9994 2 57184 97.5113 177.7664 0009646 284.8469 75.1696 15.18453235156516 SVYATOBOR 1 (RS60S) 1 57187U 23091X 26119.21322356 .00008026 00000+0 31682-3 0 9994 2 57187 97.5126 182.7833 0007961 261.5751 98.4585 15.25775765156845 VIZARD-METEO (RS38S) 1 57189U 23091Z 26119.19774000 .00015375 00000+0 46225-3 0 9994 2 57189 97.5123 187.7553 0006384 235.3227 124.7414 15.34471848157179 POLYTECH-UNIVERSE 3 (R*) 1 57191U 23091AB 26119.19310080 .00004646 00000+0 22710-3 0 9993 2 57191 97.5089 177.3052 0014091 302.8094 57.1782 15.18649625156514 UTMN 2 (RS27S) 1 57203U 23091AP 26119.18584119 .00011723 00000+0 39547-3 0 9992 2 57203 97.5121 185.7674 0006891 245.7469 114.3052 15.30846314157041 KUZGTU 1 (RS47S) 1 57217U 23091AV 26119.15590191 .00009991 00000+0 35982-3 0 9994 2 57217 97.5102 183.1718 0009533 267.3091 92.7057 15.28737805156889 SONATE-2 1 59112U 24043Q 26119.16292644 .00032751 00000+0 48429-3 0 9991 2 59112 97.5476 266.7065 0006567 27.6791 332.4811 15.55230691120266 MESAT1 1 60209U 24125G 26119.05443443 .00049008 00000+0 64362-3 0 9991 2 60209 97.2361 335.5868 0011411 47.6484 312.5737 15.58300770101901 OOV-CUBE (TUBSAT-30) 1 60240U 24128F 26119.21168519 .00002516 00000+0 19925-3 0 9993 2 60240 61.9967 36.3151 0050244 122.9981 237.5954 15.02524640 98751 COLIBRI-S (RS67S) 1 61746U 24199M 26119.15048458 .00018540 00000+0 38485-3 0 9991 2 61746 97.3073 352.6165 0010830 98.7745 261.4731 15.45681836129839 HORS 3 (RS81S) 1 61753U 24199U 26119.19229666 .00031266 00000+0 52472-3 0 9997 2 61753 97.3055 354.1645 0009277 102.0743 258.1549 15.51701954129951 HORS 4 (RS82S) 1 61754U 24199V 26119.15476128 .00037608 00000+0 55236-3 0 9998 2 61754 97.3013 355.0509 0008428 98.8376 261.3833 15.55369615130015 HORIZON (RS59S) 1 61757U 24199Y 26118.97656424 .00427671 73227-4 12302-2 0 9994 2 61757 97.2923 0.7153 0004907 125.6382 234.5351 15.93077331130368 ARCTICSAT 1 (RS74S) 1 61762U 24199AD 26118.92156874 .00171092 00000+0 94918-3 0 9990 2 61762 97.2965 359.5903 0005982 96.2736 263.9212 15.79035015130288 SIT-2086 1 61764U 24199AF 26119.17671647 .00020451 00000+0 36441-3 0 9999 2 61764 97.3033 354.7849 0008621 89.5443 270.6796 15.50097707126839 HYPERVIEW 1G (RS66S) 1 61772U 24199AP 26119.18146392 .00076025 00000+0 75138-3 0 9997 2 61772 97.2980 356.8207 0009212 99.2163 261.0140 15.65594635126984 ALTAIR (RS65S) 1 61779U 24199AW 26119.20432084 .00010199 00000+0 29150-3 0 9996 2 61779 97.3103 348.8956 0014714 118.9632 241.3089 15.36072234129591 ASRTU-1 (AO-123) 1 61781U 24199AY 26119.15260167 .00007196 00000+0 21387-3 0 9991 2 61781 97.3075 348.2742 0015637 121.4909 238.7865 15.34943594126403 TUSUR GO (RS78S) 1 61782U 24199AZ 26119.16083339 .00801601 30712-3 15012-2 0 9994 2 61782 97.2866 0.0851 0005207 151.3970 208.7595 16.00982662127206 SAMSAT-IONOSPHERE (RS7*) 1 61784U 24199BB 26119.16752809 .00035396 00000+0 55501-3 0 9992 2 61784 97.3031 354.0393 0011551 102.5788 257.6758 15.53544918129942 RTU MIREA 1 (RS51S) 1 61785U 24199BC 26119.15706690 .00043086 00000+0 61434-3 0 9996 2 61785 97.3025 354.6436 0011490 100.8070 259.4479 15.56113298126838 TEVEL2-4 1 63213U 25052D 26118.27070273 .00017880 00000+0 56518-3 0 9996 2 63213 97.3966 14.6332 0000577 341.4810 18.6411 15.32859435 62460 TEVEL2-5 1 63214U 25052E 26118.61244016 .00019046 00000+0 60429-3 0 9995 2 63214 97.3964 14.9362 0000634 333.5226 26.5983 15.32725762 62515 TEVEL2-6 1 63215U 25052F 26118.68885349 .00017665 00000+0 56141-3 0 9994 2 63215 97.3964 14.9973 0000709 333.6532 26.4674 15.32688828 62526 TEVEL2-1 1 63217U 25052H 26118.96294227 .00017262 00000+0 55670-3 0 9995 2 63217 97.3938 14.9515 0001284 353.6020 6.5205 15.32222566 62559 TEVEL2-3 1 63218U 25052J 26119.15510282 .00015764 00000+0 50791-3 0 9994 2 63218 97.3941 15.1598 0001290 352.5904 7.5319 15.32273896 62586 TEVEL2-2 1 63219U 25052K 26118.63693956 .00017895 00000+0 57707-3 0 9998 2 63219 97.3940 14.6275 0001368 355.7070 4.4159 15.32217578 62502 TEVEL2-9 1 63237U 25052AD 26119.14113242 .00014707 00000+0 50238-3 0 9991 2 63237 97.4002 14.6067 0004941 334.3423 25.7572 15.30390061 62520 TEVEL2-7 1 63238U 25052AE 26119.17325869 .00014406 00000+0 49607-3 0 9999 2 63238 97.4004 14.5741 0005043 333.8875 26.2110 15.30133993 62523 TEVEL2-8 1 63239U 25052AF 26118.98476675 .00016445 00000+0 56617-3 0 9994 2 63239 97.4004 14.3649 0005077 336.2157 23.8848 15.30110438 62492 HADES-ICM 1 63492U 25052BN 26118.46263687 .00421192 00000+0 22989-2 0 9998 2 63492 97.3838 21.4147 0003866 145.4406 214.7113 15.78753249 62930 INNOSAT 16 (RS92S7) 1 64878U 25155C 26119.18955709 .00006410 00000+0 26015-3 0 9991 2 64878 97.4530 86.5052 0010690 9.8324 350.3121 15.24901281 73201 GEOSCAN 6 (RS92S6) 1 64879U 25155D 26119.18509605 .00010614 00000+0 37695-3 0 9999 2 64879 97.4524 87.5939 0007749 7.9622 352.1740 15.29188931 73279 GEOSCAN 1 (RS92S1) 1 64880U 25155E 26119.07450484 .00012764 00000+0 44554-3 0 9999 2 64880 97.4521 87.5916 0007692 8.8643 351.2732 15.29706008 73264 239ALFEROV (RS61S) 1 64881U 25155F 26119.17456605 .00014259 00000+0 46936-3 0 9999 2 64881 97.4524 88.1001 0007220 10.0790 350.0595 15.31586296 73302 GEOSCAN 2 (RS92S2) 1 64890U 25155Q 26119.14248000 .00011970 00000+0 41444-3 0 9990 2 64890 97.4519 87.7925 0006529 356.9485 3.1714 15.29993640 73288 GEOSCAN 5 (RS92S5) 1 64891U 25155R 26119.17382031 .00013896 00000+0 45296-3 0 9995 2 64891 97.4516 88.2180 0006450 19.5678 340.5810 15.31911910 73316 GEOSCAN 4 (RS92S4) 1 64892U 25155S 26119.16244830 .00013725 00000+0 44566-3 0 9999 2 64892 97.4519 88.2422 0006474 19.8808 340.2684 15.32038104 73315 GEOSCAN 3 (RS92S3) 1 64893U 25155T 26119.15620616 .00017087 00000+0 52585-3 0 9994 2 64893 97.4508 88.5363 0006293 23.3660 336.7867 15.33705602 73336 INNOSAT 3 (RS92S0) 1 64894U 25155U 26119.19116806 .00033434 00000+0 82519-3 0 9994 2 64894 97.4468 89.6531 0005565 33.2232 326.9362 15.40437699 73413 KNACKSAT-2 1 67683U 98067XZ 26118.44026888 .00037603 00000+0 53648-3 0 9995 2 67683 51.6295 183.8755 0012529 13.5417 346.5908 15.55824780 12527